STARLINK-4508 (53559 NORAD) Tracking and Keplerian Element Data

This shows tracking and keplerian element data for the satellite.

Feedback or suggestion? Click here.




ElementValue
Catalog53559
NameSTARLINK-4508
Epoch Orbit130
Epoch Day324.91667824
Epoch Year2022
RAAN72.5508
Inclination53.2208
Eccentricity0.0001553
Argument of Perigee57.4222
Mean Anonmoly137.0487
Mean Motion15.08859243
Decay Rate-0.00052811
L11 53559U 22101AJ 22324.91667824 -.00052811 00000+0 -33228-2 0 9997
L22 53559 53.2208 72.5508 0001553 57.4222 137.0487 15.08859243 1301



Live tracking and technical data element details for STARLINK-4508 (NORAD 53559). STARLINK-4508 can be tracked NOW for your location showing map with azimuth and elevation plus other details from your city location.







IsCatalogInMostPopularTable: catalog: 53559, numindb: 4
Update: records affected: 1



GetName: 53559 STARLINK-4508

Hit Count: updated at: Thu, 08 Dec 2022 20:50:05 GMT